Tracking 25723 objects as of 26-Jun-2022
HD Live streaming from Space Station
objects crossing your sky now

DMSP 5D-2 F13 DEB

Track DMSP 5D-2 F13 DEB now!
10-day predictions


NORAD ID: 40398
Int'l Code: 1995-015K
Perigee: 840.8 km
Apogee: 849.5 km
Inclination: 98.8 °
Period: 101.7 minutes
Semi major axis: 7216 km
RCS: Unknown
Launch date: March 24, 1995
Source: United States (US)
Launch site: AIR FORCE WESTERN TEST RANGE (AFWTR)

Note: This is SATELLITE DEBRIS
aabbcc
Your satellite tracking list
Your tracking list is empty




NASA's NSSDC Master Catalog

Two Line Element Set (TLE):
1 40398U 95015K   22177.49737469  .00000104  00000-0  74746-4 0  9999
2 40398  98.8202 183.7653 0006079 340.8195  19.2750 14.16269205382058
Source of the keplerian elements: AFSPC